Zurück zum Katalog

ORBCOMM FM 22

AktivKommunikationLEO
NORAD 25476·PAYLOAD·🇺🇸 United States

Gestartet Sep 23, 1998 von Cape Canaveral Space Force Station

Loading…

Nächste Überflüge (nächste 24 Stunden)

TLE

AktuellSource: Space-Track

Epoche: Sep 14, 2026, 01:55 UTC

1 25476U 98053B   26257.08042993  .00000546  00000-0  21856-3 0  9996
2 25476  45.0066 268.8675 0004751 311.5177  48.5264 14.39594864462656

Verfolge ORBCOMM FM 22 in Echtzeit mit AllMySat

Download on the App Store